Vorticity
3 3 3 3 3 4 3 3 9 9 8 8 7 5 2 8 5 6 4 2 3 1 4 13 28 28 23 9 10 8 17 8 17 7 3 7 5 10 17 22 20 30 19 14 6 0 14
3 3 3 3 4 5 4 2 8 10 8 9 7 4 2 6 4 3 0 1 3 2 7 11 24 30 21 10 19 13 19 13 12 8 8 3 12 12 8 13 13 18 22 33 13 5 3
4 4 3 3 5 6 5 4 3 9 7 8 6 5 1 5 1 1 -0 1 3 5 9 11 21 28 19 14 9 25 15 16 12 9 11 11 15 15 13 19 18 -1 19 19 30 23 9
4 5 3 4 5 5 5 5 3 8 8 6 5 4 1 2 3 2 -0 3 3 7 11 9 19 26 20 7 8 7 23 19 12 12 5 21 27 19 12 3 4 20 18 22 15 28 16
5 5 3 4 6 8 6 6 6 3 8 5 3 3 6 2 4 4 2 4 2 7 11 6 10 27 28 10 -4 20 14 16 14 5 16 9 12 19 18 10 8 26 25 -28 25 19 21
5 6 5 5 4 7 8 9 7 3 7 8 5 3 6 2 5 6 3 3 3 7 9 5 7 15 37 25 6 5 14 7 10 12 5 7 3 31 31 5 14 10 18 5 35 11 23
6 6 5 6 8 10 9 10 9 5 3 9 8 7 4 4 5 5 3 2 8 4 9 5 3 10 13 29 15 7 5 14 12 19 15 3 19 4 32 9 16 10 4 12 18 21 18
6 4 5 7 9 9 9 13 10 7 4 3 9 9 6 4 5 5 2 2 5 -1 8 7 4 9 13 25 25 18 7 5 6 5 13 12 16 1 5 5 4 1 8 27 6 19 14
7 5 5 6 6 8 9 11 13 8 5 4 5 11 7 3 4 5 3 2 3 4 10 7 3 5 9 13 18 27 13 5 8 8 9 8 14 9 10 18 12 10 16 15 21 16 18
7 4 4 5 5 6 8 9 11 12 7 5 4 8 10 6 6 4 4 2 4 6 9 7 5 1 7 7 10 22 33 18 15 21 18 16 9 13 9 11 10 13 16 7 20 11 12
8 5 4 4 3 3 4 7 9 13 12 7 5 5 7 10 6 6 2 3 4 5 3 3 11 2 2 11 7 8 25 20 12 12 16 14 11 14 14 12 12 15 12 10 12 14 10
7 5 4 4 3 2 3 3 5 8 13 11 7 5 3 8 10 7 5 2 3 4 3 5 5 9 6 5 5 9 12 25 14 10 10 8 -3 12 10 17 11 3 8 13 6 14 14
6 6 4 3 2 1 2 3 3 4 6 11 12 7 7 5 2 8 10 6 5 3 4 3 4 7 7 4 5 4 9 12 20 20 24 14 9 13 7 15 6 8 2 5 2 16 24
4 6 4 3 2 1 1 3 3 4 3 5 10 11 9 7 5 5 4 10 8 3 3 4 4 3 8 8 5 6 5 9 13 12 17 13 10 14 17 16 20 14 17 9 24 18 17
5 7 4 3 2 2 1 1 3 3 3 3 5 6 9 9 8 5 5 2 7 9 4 4 6 5 3 8 8 7 5 4 11 11 7 6 6 13 17 11 5 14 16 9 17 17 10
6 6 5 4 3 2 3 1 1 3 4 4 3 4 6 8 8 7 6 3 3 4 10 7 4 6 4 3 8 9 6 6 6 9 12 6 14 3 5 10 10 6 6 12 20 26 24
7 6 5 4 3 2 3 2 0 1 2 3 4 4 4 3 5 6 3 6 5 2 1 5 10 5 5 6 3 5 7 6 4 7 3 6 14 9 4 5 6 8 2 1 9 8 20
-2 5 6 5 4 3 2 3 4 -0 2 2 2 5 3 3 4 0 2 7 5 7 4 -0 2 12 4 5 7 4 4 7 9 6 4 5 11 3 4 -4 -1 -0 4 6 4 1 9
-0 7 2 5 4 4 3 2 3 3 3 1 3 3 4 3 2 -1 4 3 5 8 8 7 1 1 12 6 4 5 5 5 4 7 8 6 5 8 7 8 13 7 6 5 6 8 -2
6 9 0 -2 3 4 3 3 2 2 3 4 1 -0 3 5 1 1 -0 5 1 4 10 7 6 5 2 12 5 4 5 5 6 5 4 6 8 8 8 7 6 8 9 5 8 7 7
3 2 0 8 3 -0 3 3 4 -1 5 4 5 6 5 -3 8 6 6 2 -1 8 5 12 4 10 6 4 13 5 4 1 3 6 9 7 5 5 5 8 8 11 12 9 7 7 7
15 7 20 1 3 -3 8 -4 7 -4 2 5 4 6 6 8 2 -10 2 3 7 4 1 8 11 9 11 7 3 17 4 6 -0 -0 2 5 8 9 4 9 7 6 5 6 7 7 9
13 8 12 9 3 15 -3 4 5 -3 1 1 3 6 8 1 4 8 8 1 1 3 -0 9 11 7 11 18 8 2 13 5 6 1 -1 2 3 7 9 9 11 13 6 7 8 6 10
6 12 17 13 11 5 1 -2 1 8 10 -9 3 6 4 3 5 -4 8 -6 8 4 -2 10 13 10 5 16 22 5 6 12 5 5 4 5 3 3 3 5 5 5 12 12 6 6 6
5 4 8 11 15 9 11 5 12 -10 2 8 9 -0 -8 3 2 -1 -1 -1 1 21 13 8 16 8 7 12 21 16 4 11 11 6 4 4 4 3 4 2 3 5 7 5 6 5 7
14 8 9 6 14 16 11 6 8 8 7 5 1 8 8 -0 3 3 3 4 11 2 13 7 13 10 10 11 13 20 11 4 15 10 7 4 4 3 4 3 2 -0 2 5 5 2 1
11 10 13 6 11 17 18 15 1 2 10 5 -2 6 7 12 -0 3 3 6 8 5 4 18 12 11 9 11 14 22 20 11 10 12 8 6 6 4 3 4 7 6 6 3 5 4 5
14 10 10 13 6 10 8 24 19 15 1 2 -2 4 -5 5 4 1 4 7 -7 3 11 20 11 14 10 11 12 19 18 11 12 12 9 9 9 8 8 9 6 9 11 7 7 6 6
7 13 13 10 13 6 12 11 15 8 15 18 10 -8 -3 -3 -6 -1 -2 -1 32 22 17 15 11 14 11 10 10 11 8 8 10 12 12 11 9 10 10 7 8 9 7 6 4 2 3
Height
5828 5827 5827 5826 5825 5824 5821 5819 5816 5814 5811 5808 5806 5803 5799 5796 5792 5786 5781 5774 5764 5752 5740 5727 5713 5700 5691 5686 5682 5676 5672 5669 5667 5666 5664 5662 5661 5661 5661 5662 5665 5669 5674 5681 5688 5694 5702
5827 5827 5826 5825 5824 5822 5820 5818 5815 5813 5810 5807 5804 5801 5798 5795 5790 5785 5779 5771 5760 5749 5737 5725 5711 5699 5691 5686 5680 5675 5671 5668 5666 5664 5662 5661 5659 5659 5658 5658 5660 5663 5666 5672 5678 5686 5695
5827 5826 5826 5825 5823 5821 5819 5817 5815 5812 5809 5806 5803 5800 5797 5793 5789 5783 5777 5769 5759 5748 5736 5723 5710 5699 5692 5687 5681 5675 5671 5668 5666 5664 5661 5658 5656 5656 5656 5656 5658 5660 5663 5665 5672 5679 5688
5826 5826 5825 5824 5822 5820 5818 5816 5814 5811 5808 5805 5802 5799 5796 5792 5788 5782 5776 5768 5758 5747 5736 5724 5712 5700 5693 5688 5683 5677 5672 5669 5666 5664 5661 5658 5654 5653 5654 5655 5656 5658 5661 5663 5665 5671 5682
5825 5824 5824 5823 5820 5818 5816 5814 5812 5810 5807 5804 5801 5798 5795 5791 5786 5781 5775 5768 5759 5748 5737 5726 5716 5703 5697 5690 5685 5679 5676 5672 5669 5666 5662 5659 5656 5654 5653 5655 5657 5657 5658 5660 5663 5669 5677
5823 5823 5822 5821 5819 5817 5815 5812 5810 5808 5806 5803 5799 5797 5793 5790 5785 5779 5774 5768 5759 5750 5739 5729 5718 5709 5698 5693 5688 5683 5680 5675 5672 5669 5667 5663 5660 5656 5655 5657 5657 5657 5659 5660 5660 5668 5676
5820 5821 5820 5819 5817 5815 5813 5811 5808 5806 5804 5802 5798 5795 5792 5788 5784 5779 5773 5768 5762 5753 5742 5731 5722 5712 5702 5696 5691 5687 5683 5679 5675 5672 5670 5666 5663 5662 5660 5659 5660 5658 5662 5663 5665 5671 5676
5818 5818 5818 5817 5815 5813 5811 5809 5807 5804 5802 5800 5797 5794 5791 5787 5783 5779 5773 5768 5762 5756 5745 5735 5726 5717 5708 5700 5694 5689 5686 5683 5679 5676 5672 5670 5667 5665 5665 5664 5664 5664 5664 5666 5669 5672 5678
5815 5815 5815 5814 5814 5812 5810 5807 5805 5802 5799 5798 5796 5793 5789 5786 5782 5779 5773 5769 5763 5756 5748 5739 5731 5722 5713 5705 5698 5692 5688 5684 5681 5678 5675 5672 5670 5668 5667 5666 5666 5667 5667 5668 5671 5674 5678
5812 5812 5812 5812 5811 5810 5808 5806 5803 5800 5797 5796 5794 5792 5788 5785 5782 5778 5774 5769 5763 5757 5750 5744 5735 5728 5719 5710 5703 5696 5689 5687 5682 5679 5677 5676 5674 5671 5669 5669 5669 5667 5668 5671 5672 5675 5679
5808 5808 5808 5809 5808 5807 5806 5804 5802 5799 5796 5794 5792 5790 5787 5784 5781 5777 5775 5769 5764 5759 5753 5748 5740 5733 5725 5717 5710 5702 5694 5689 5687 5684 5683 5681 5677 5675 5673 5672 5672 5672 5671 5673 5675 5677 5680
5802 5804 5804 5805 5805 5805 5804 5802 5800 5798 5795 5792 5790 5788 5786 5783 5780 5776 5773 5769 5765 5762 5755 5750 5744 5736 5730 5723 5715 5708 5702 5695 5691 5690 5688 5686 5683 5681 5678 5677 5677 5677 5677 5678 5678 5680 5682
5797 5798 5799 5800 5800 5801 5800 5800 5798 5796 5794 5791 5788 5786 5784 5782 5779 5775 5772 5769 5766 5760 5758 5753 5746 5740 5734 5728 5722 5715 5709 5702 5697 5694 5692 5690 5688 5686 5685 5683 5681 5681 5681 5682 5683 5682 5683
5789 5791 5793 5794 5795 5795 5796 5796 5795 5793 5791 5790 5787 5784 5782 5780 5777 5775 5771 5768 5765 5761 5757 5754 5749 5743 5738 5732 5727 5722 5716 5710 5703 5699 5696 5695 5694 5692 5690 5689 5688 5688 5688 5685 5684 5684 5685
5783 5785 5787 5788 5788 5789 5790 5791 5790 5790 5788 5787 5785 5783 5780 5778 5776 5773 5771 5767 5763 5761 5758 5754 5751 5746 5741 5737 5732 5727 5722 5717 5712 5707 5704 5701 5699 5698 5696 5696 5696 5694 5692 5691 5689 5688 5688
5773 5776 5779 5781 5782 5783 5784 5785 5786 5785 5784 5783 5782 5780 5778 5777 5774 5771 5769 5766 5763 5759 5757 5754 5751 5748 5743 5739 5736 5731 5727 5722 5719 5715 5710 5708 5705 5703 5700 5699 5700 5699 5699 5696 5694 5693 5693
5765 5766 5770 5773 5774 5776 5777 5778 5779 5779 5779 5778 5777 5777 5775 5773 5772 5770 5767 5764 5762 5759 5756 5753 5750 5748 5745 5741 5737 5734 5730 5726 5722 5719 5716 5713 5710 5709 5706 5703 5701 5701 5700 5699 5698 5697 5696
5754 5757 5760 5763 5765 5767 5769 5770 5771 5772 5773 5773 5772 5772 5770 5769 5769 5766 5764 5762 5760 5757 5754 5751 5749 5746 5745 5742 5739 5735 5732 5728 5724 5721 5719 5716 5715 5712 5711 5708 5706 5702 5701 5700 5700 5701 5699
5745 5747 5749 5752 5754 5757 5759 5760 5762 5763 5765 5765 5765 5765 5765 5763 5763 5761 5760 5757 5756 5754 5751 5749 5746 5744 5742 5741 5739 5735 5732 5730 5727 5724 5721 5719 5716 5715 5713 5712 5709 5707 5705 5704 5703 5703 5703
5729 5734 5737 5741 5743 5746 5748 5750 5752 5753 5755 5757 5757 5758 5758 5757 5756 5755 5754 5753 5750 5749 5748 5745 5743 5740 5739 5737 5736 5735 5732 5729 5727 5724 5721 5719 5717 5715 5714 5712 5710 5708 5707 5707 5707 5707 5706
5715 5719 5722 5726 5731 5733 5736 5739 5741 5743 5744 5746 5747 5749 5750 5749 5749 5748 5747 5747 5745 5742 5743 5740 5739 5736 5734 5733 5731 5730 5730 5728 5726 5724 5722 5719 5717 5716 5714 5712 5710 5709 5708 5707 5706 5707 5707
5699 5702 5708 5712 5716 5719 5723 5725 5729 5731 5733 5735 5736 5739 5739 5740 5740 5739 5739 5740 5738 5736 5735 5734 5732 5730 5728 5726 5725 5724 5724 5724 5723 5721 5719 5718 5716 5714 5712 5711 5710 5709 5708 5708 5707 5706 5706
5683 5687 5691 5696 5700 5704 5708 5711 5714 5718 5720 5723 5725 5726 5727 5730 5730 5730 5731 5729 5730 5729 5728 5726 5724 5723 5721 5719 5717 5717 5716 5716 5717 5717 5715 5714 5712 5711 5710 5709 5708 5708 5706 5706 5705 5705 5705
5668 5671 5674 5678 5684 5689 5693 5696 5699 5703 5706 5709 5713 5714 5715 5717 5719 5720 5720 5720 5719 5719 5719 5717 5715 5714 5713 5710 5709 5708 5709 5709 5709 5710 5710 5709 5708 5707 5707 5706 5706 5704 5703 5702 5702 5701 5701
5650 5654 5658 5661 5666 5671 5677 5681 5683 5688 5692 5695 5698 5701 5702 5703 5707 5708 5708 5708 5708 5707 5708 5707 5706 5704 5703 5702 5699 5698 5700 5701 5701 5702 5703 5702 5702 5701 5701 5701 5701 5698 5696 5696 5695 5695 5694
5631 5636 5641 5645 5649 5653 5657 5663 5667 5670 5676 5682 5685 5686 5688 5689 5694 5696 5696 5697 5697 5697 5697 5697 5695 5694 5693 5692 5690 5689 5690 5691 5692 5693 5694 5694 5693 5694 5693 5693 5694 5692 5689 5687 5687 5687 5685
5611 5617 5622 5627 5632 5636 5640 5645 5650 5655 5659 5665 5670 5672 5674 5675 5680 5681 5683 5685 5687 5686 5685 5685 5685 5684 5683 5682 5680 5680 5681 5681 5682 5684 5685 5684 5683 5685 5683 5684 5687 5682 5680 5679 5679 5680 5676
5593 5595 5601 5609 5614 5618 5622 5626 5631 5637 5642 5647 5653 5656 5659 5661 5665 5667 5669 5672 5674 5675 5673 5673 5675 5674 5673 5672 5671 5671 5671 5673 5674 5674 5674 5675 5675 5675 5675 5675 5675 5673 5670 5670 5668 5666 5667
5571 5575 5583 5588 5592 5597 5603 5607 5613 5618 5624 5629 5634 5640 5642 5645 5650 5652 5654 5658 5661 5660 5661 5660 5661 5662 5663 5663 5663 5662 5662 5663 5664 5665 5665 5666 5666 5666 5666 5665 5662 5660 5659 5657 5657 5657 5656